Flag for Germany Weather past 2 weeks in Ostfildern, Baden-Württemberg, Germany

Now
64 °F

Sunny.


Feels Like: 64 °F
Forecast: 51 / 64 °F
Wind: 1 mph from North

Location: Stuttgart-Echterdingen

Current Time: May 5, 2015 at 9:20:01 AM

Latest Report: May 5, 2015 at 8:50 AM


Visibility: 10 mi

Pressure: 29.65 "Hg

Humidity: 88%

Dew point: 61 °F

Location of OstfildernLocation

Historic Weather in Ostfildern — Graph

°F

Ostfildern temperature yesterday

Maximum temperature yesterday: 72 °F (at 4:50 PM)
Minimum temperature yesterday: 54 °F (at 6:20 AM)
Average temperature yesterday: 64 °F

Past Weeks' High & Low Weather Summary

 TemperatureHumidityPressure
High72 °F (May 4, 4:50 PM)100% (Apr 27, 9:50 PM)30.39 "Hg (Apr 27, 9:50 PM)
Low32 °F (Apr 23, 6:20 AM)23% (Apr 24, 2:50 PM)29.53 "Hg (Apr 27, 4:50 PM)
Average54 °F70%29.94 "Hg
* Reported Apr 20 8:20 AM — May 5 8:20 AM, Ostfildern, Weather by CustomWeather, © 2015

Note: Actual official high and low records may vary slightly from our data, if they occured in-between our weather recording intervals... More about our weather records

Advertising

Ostfildern weather history for previous 24 hours

 ConditionsComfort  
Time TempWeatherWind HumidityBarometerVisibility
8:20 AM
Tue, May 5
64 °FSunny.3 mph78%29.65 "Hg10 mi
7:50 AM61 °FSunny.1 mph88%29.65 "Hg10 mi
7:20 AM61 °FSunny.1 mph88%29.62 "Hg10 mi
6:50 AM61 °FClear.2 mph88%29.62 "Hg10 mi
6:20 AM61 °FPassing clouds.3 mph83%29.62 "HgN/A
5:20 AM61 °FClear.5 mph83%29.62 "Hg10 mi
4:50 AM61 °FClear.2 mph83%29.65 "Hg10 mi
4:20 AM61 °FClear.2 mph83%29.62 "Hg10 mi
3:50 AM63 °FClear.1 mph77%29.65 "Hg10 mi
3:20 AM63 °FClear.2 mph77%29.65 "Hg10 mi
2:50 AM63 °FClear.2 mph77%29.65 "Hg10 mi
2:20 AM61 °FClear.2 mph83%29.65 "Hg10 mi
1:50 AM63 °FClear.3 mph83%29.65 "Hg10 mi
1:20 AM63 °FPassing clouds.5 mph83%29.68 "HgN/A
12:50 AM64 °FPassing clouds.6 mph78%29.68 "HgN/A
12:20 AM64 °FLight rain. Clear.5 mph78%29.71 "HgN/A
11:50 PM
Mon, May 4
64 °FPassing clouds.5 mph78%29.71 "HgN/A
11:20 PM64 °FClear.2 mph78%29.74 "Hg10 mi
10:50 PM64 °FPassing clouds.5 mph78%29.74 "HgN/A
10:20 PM64 °FClear.2 mph78%29.77 "Hg10 mi
9:50 PM64 °FPassing clouds.3 mph83%29.74 "HgN/A
9:20 PM64 °FPassing clouds.5 mph83%29.77 "HgN/A
8:50 PM66 °FPassing clouds.3 mph78%29.77 "HgN/A
8:20 PM66 °FPassing clouds.6 mph78%29.77 "HgN/A
7:50 PM68 °FPassing clouds.7 mph73%29.77 "HgN/A
7:20 PM70 °FPassing clouds.8 mph64%29.77 "HgN/A
6:50 PM70 °FPartly sunny.7 mph60%29.80 "HgN/A
6:20 PM70 °FScattered clouds.6 mph60%29.80 "HgN/A
5:50 PM72 °FScattered clouds.5 mph53%29.83 "HgN/A
5:20 PM70 °FScattered clouds.6 mph53%29.83 "HgN/A
4:50 PM72 °FScattered clouds.7 mph53%29.83 "HgN/A
4:20 PM70 °FScattered clouds.8 mph50%29.83 "HgN/A
3:50 PM70 °FPartly sunny.7 mph57%29.83 "HgN/A
3:20 PM70 °FBroken clouds.7 mph64%29.86 "HgN/A
2:50 PM70 °FBroken clouds.9 mph64%29.86 "HgN/A
2:20 PM70 °FBroken clouds.6 mph60%29.86 "HgN/A
1:50 PM70 °FBroken clouds.6 mph64%29.86 "HgN/A
1:20 PM70 °FBroken clouds.8 mph60%29.86 "HgN/A
12:50 PM68 °FBroken clouds.6 mph64%29.86 "HgN/A
12:20 PM68 °FBroken clouds.8 mph69%29.86 "HgN/A
11:50 AM66 °FBroken clouds.8 mph78%29.86 "HgN/A
11:20 AM66 °FBroken clouds.7 mph83%29.86 "HgN/A
10:50 AM64 °FBroken clouds.3 mph83%29.86 "HgN/A
10:20 AM63 °FBroken clouds.2 mph88%29.86 "HgN/A
9:50 AM61 °FBroken clouds.2 mph88%29.86 "HgN/A
9:20 AM59 °FBroken clouds.1 mph94%29.86 "HgN/A
Weather by CustomWeather, © 2015

See weather overviewHow to use our weather pages